Appleton, MN

11:24 PM CST on January 21, 2018 (GMT -0600)
Appleton Municipal

Weather History for KAQP - May, 2009

Change the Weather History Date:

Sunday, May 17, 2009

  Actual Average Record
Temperature  
Mean Temperature 50 °F -  
Max Temperature 66 °F 65 °F 93 °F (2012)
Min Temperature 33 °F 43 °F 30 °F (2002)
Degree Days  
Heating Degree Days 16    
Moisture  
Dew Point 34 °F    
Average Humidity 58    
Maximum Humidity 93    
Minimum Humidity 29    
Precipitation  
Precipitation 0.00 in - - ()
Sea Level Pressure  
Sea Level Pressure 30.25 in    
Wind  
Wind Speed 4 mph (SSE)    
Max Wind Speed 17 mph    
Max Gust Speed 23 mph    
Visibility 10 miles    
Events      
Averages and records for this station are not official NWS values.
T = Trace of Precipitation, MM = Missing Value Source: NWS Daily Summary

Daily Weather History Graph

Daily Weather History Graph

Search for Another Location

Airport or City:

Trip Planner

Search our weather history database for the weather conditions in past years. The results will help you decide how hot, cold, wet, or windy it might be!

Date:

Astronomy

May. 17, 2009 Rise Set
Actual Time 5:51 AM CDT 8:49 PM CDT
Civil Twilight 5:17 AM CDT 9:24 PM CDT
Nautical Twilight 4:32 AM CDT 10:09 PM CDT
Astronomical Twilight 3:40 AM CDT 11:02 PM CDT
Moon 2:19 AM CDT (5/17) 1:18 PM CDT (5/17)
Length of Visible Light 16h 07m
Length of Day
14h 57m
Last Quarter, 46% of the Moon is Illuminated
May 17
Last Quarter
May 24
New
May 30
First Quarter
Jun 7
Full
Jun 15
Last Quarter

Hourly Weather History & Observations

Time (CDT) Temp. Windchill Dew Point Humidity Pressure Visibility Wind Dir Wind Speed Gust Speed Precip Events Conditions
12:13 AM 41.0 °F - 32.0 °F 70% 30.30 in 10.0 mi Calm Calm - N/A   Clear
12:33 AM 39.2 °F - 32.0 °F 75% 30.30 in 10.0 mi Calm Calm - N/A   Clear
12:53 AM 39.2 °F - 35.6 °F 87% 30.30 in 10.0 mi Calm Calm - N/A   Clear
1:13 AM 37.4 °F - 35.6 °F 93% 30.31 in 10.0 mi Calm Calm - N/A   Clear
1:33 AM 37.4 °F 34.9 °F 33.8 °F 87% 30.31 in 10.0 mi SSW 3.5 mph - N/A   Clear
1:53 AM 37.4 °F - 32.0 °F 81% 30.31 in 10.0 mi Calm Calm - N/A   Clear
2:13 AM 35.6 °F 32.8 °F 33.8 °F 93% 30.31 in 10.0 mi SSW 3.5 mph - N/A   Clear
2:33 AM 35.6 °F - 33.8 °F 93% 30.31 in 10.0 mi Calm Calm - N/A   Clear
2:53 AM 33.8 °F - 30.2 °F 87% 30.32 in 10.0 mi Calm Calm - N/A   Clear
3:14 AM 37.4 °F - 30.2 °F 75% 30.31 in 10.0 mi Calm Calm - N/A   Clear
3:33 AM 35.6 °F - 32.0 °F 87% 30.31 in 10.0 mi Calm Calm - N/A   Clear
3:53 AM 37.4 °F - 30.2 °F 75% 30.31 in 10.0 mi Calm Calm - N/A   Clear
4:13 AM 35.6 °F - 33.8 °F 93% 30.30 in 10.0 mi Calm Calm - N/A   Clear
4:33 AM 33.8 °F - 32.0 °F 93% 30.31 in 10.0 mi Calm Calm - N/A   Clear
4:53 AM 35.6 °F 32.8 °F 33.8 °F 93% 30.31 in 10.0 mi South 3.5 mph - N/A   Clear
5:13 AM 35.6 °F - 32.0 °F 87% 30.31 in 10.0 mi Calm Calm - N/A   Clear
5:34 AM 33.8 °F - 30.2 °F 87% 30.30 in 10.0 mi Calm Calm - N/A   Clear
5:53 AM 33.8 °F 30.8 °F 30.2 °F 87% 30.30 in 10.0 mi South 3.5 mph - N/A   Clear
6:14 AM 33.8 °F 30.8 °F 28.4 °F 81% 30.30 in 10.0 mi South 3.5 mph - N/A   Clear
6:33 AM 33.8 °F - 28.4 °F 81% 30.30 in 10.0 mi Calm Calm - N/A   Clear
6:53 AM 33.8 °F - 30.2 °F 87% 30.31 in 10.0 mi Calm Calm - N/A   Clear
7:13 AM 37.4 °F - 33.8 °F 87% 30.31 in 10.0 mi Calm Calm - N/A   Clear
7:33 AM 41.0 °F 39.0 °F 33.8 °F 76% 30.32 in 10.0 mi South 3.5 mph - N/A   Clear
7:53 AM 44.6 °F 42.2 °F 32.0 °F 61% 30.32 in 10.0 mi SSE 4.6 mph - N/A   Clear
8:13 AM 46.4 °F 42.9 °F 30.2 °F 53% 30.31 in 10.0 mi South 6.9 mph - N/A   Clear
8:33 AM 48.2 °F - 30.2 °F 50% 30.30 in 10.0 mi SSE 8.1 mph - N/A   Clear
8:53 AM 51.8 °F - 28.4 °F 41% 30.30 in 10.0 mi SSE 12.7 mph - N/A   Clear
9:13 AM 53.6 °F - 28.4 °F 38% 30.30 in 10.0 mi SE 11.5 mph - N/A   Clear
9:33 AM 53.6 °F - 28.4 °F 38% 30.29 in 10.0 mi SSE 12.7 mph - N/A   Clear
9:54 AM 55.4 °F - 28.4 °F 36% 30.28 in 10.0 mi SSE 11.5 mph - N/A   Clear
10:13 AM 55.4 °F - 28.4 °F 36% 30.27 in 10.0 mi SSE 10.4 mph - N/A   Clear
10:33 AM 57.2 °F - 30.2 °F 36% 30.26 in 10.0 mi SE 9.2 mph - N/A   Clear
10:53 AM 57.2 °F - 26.6 °F 31% 30.25 in 10.0 mi SSE 8.1 mph - N/A   Clear
11:13 AM 59.0 °F - 28.4 °F 31% 30.25 in 10.0 mi SE 12.7 mph - N/A   Clear
11:33 AM 60.8 °F - 28.4 °F 29% 30.24 in 10.0 mi SE 10.4 mph - N/A   Clear
11:53 AM 60.8 °F - 28.4 °F 29% 30.23 in 10.0 mi South 8.1 mph - N/A   Clear
12:13 PM 60.8 °F - 30.2 °F 31% 30.22 in 10.0 mi SSE 8.1 mph - N/A   Clear
12:33 PM 60.8 °F - 32.0 °F 34% 30.22 in 7.0 mi SE 11.5 mph 16.1 mph N/A   Clear
12:53 PM 62.6 °F - 33.8 °F 34% 30.21 in 10.0 mi SE 8.1 mph 17.3 mph N/A   Clear
1:13 PM 62.6 °F - 35.6 °F 37% 30.20 in 10.0 mi SSW 6.9 mph 16.1 mph N/A   Clear
1:33 PM 62.6 °F - 37.4 °F 39% 30.19 in 10.0 mi South 15.0 mph - N/A   Clear
1:54 PM 62.6 °F - 39.2 °F 42% 30.18 in 10.0 mi SE 9.2 mph - N/A   Scattered Clouds
2:13 PM 62.6 °F - 41.0 °F 45% 30.18 in 10.0 mi SSW 11.5 mph 18.4 mph N/A   Scattered Clouds
2:33 PM 62.6 °F - 41.0 °F 45% 30.18 in 7.0 mi South 8.1 mph - N/A   Scattered Clouds
2:53 PM 62.6 °F - 39.2 °F 42% 30.17 in 7.0 mi SSE 5.8 mph - N/A   Scattered Clouds
3:13 PM 64.4 °F - 39.2 °F 40% 30.16 in 7.0 mi SE 12.7 mph 17.3 mph N/A   Mostly Cloudy
3:33 PM 64.4 °F - 41.0 °F 42% 30.16 in 7.0 mi SSE 10.4 mph - N/A   Mostly Cloudy
3:53 PM 64.4 °F - 41.0 °F 42% 30.15 in 4.0 mi SE 12.7 mph 17.3 mph N/A   Haze
4:13 PM 66.2 °F - 41.0 °F 40% 30.15 in 10.0 mi South 12.7 mph 18.4 mph N/A   Scattered Clouds
4:33 PM 64.4 °F - 41.0 °F 42% 30.15 in 10.0 mi South 16.1 mph 20.7 mph N/A   Scattered Clouds
4:53 PM 64.4 °F - 41.0 °F 42% 30.15 in 10.0 mi South 16.1 mph 23.0 mph N/A   Mostly Cloudy
5:13 PM 64.4 °F - 41.0 °F 42% 30.14 in 10.0 mi South 9.2 mph 21.9 mph N/A   Scattered Clouds
5:33 PM 64.4 °F - 41.0 °F 42% 30.14 in 10.0 mi South 11.5 mph 19.6 mph N/A   Clear
5:53 PM 62.6 °F - 41.0 °F 45% 30.13 in 10.0 mi SSE 12.7 mph - N/A   Clear
6:13 PM 62.6 °F - 41.0 °F 45% 30.13 in 10.0 mi South 12.7 mph - N/A   Clear
6:33 PM 62.6 °F - 41.0 °F 45% 30.12 in 10.0 mi SSE 12.7 mph 18.4 mph N/A   Clear
6:53 PM 60.8 °F - 41.0 °F 48% 30.12 in 10.0 mi South 17.3 mph 21.9 mph N/A   Clear
7:13 PM 60.8 °F - 41.0 °F 48% 30.11 in 10.0 mi SSE 15.0 mph 18.4 mph N/A   Clear
7:33 PM 59.0 °F - 42.8 °F 55% 30.12 in 10.0 mi SSE 13.8 mph 19.6 mph N/A   Clear
7:53 PM 57.2 °F - 39.2 °F 51% 30.13 in 10.0 mi South 17.3 mph 24.2 mph N/A   Clear
8:13 PM 55.4 °F - 39.2 °F 54% 30.12 in 10.0 mi SSE 16.1 mph 23.0 mph N/A   Clear
8:33 PM 53.6 °F - 39.2 °F 58% 30.13 in 10.0 mi South 12.7 mph 17.3 mph N/A   Clear
8:53 PM 53.6 °F - 39.2 °F 58% 30.12 in 10.0 mi SSE 9.2 mph 16.1 mph N/A   Clear
9:13 PM 51.8 °F - 39.2 °F 62% 30.12 in 10.0 mi SSE 11.5 mph 16.1 mph N/A   Clear
9:33 PM 51.8 °F - 39.2 °F 62% 30.12 in 10.0 mi SSE 9.2 mph - N/A   Clear
9:53 PM 51.8 °F - 39.2 °F 62% 30.12 in 10.0 mi SSE 8.1 mph - N/A   Clear
10:14 PM 51.8 °F - 39.2 °F 62% 30.12 in 10.0 mi SSE 9.2 mph - N/A   Clear
10:34 PM 50.0 °F - 39.2 °F 66% 30.12 in 10.0 mi SSE 9.2 mph - N/A   Clear
10:53 PM 50.0 °F - 37.4 °F 62% 30.11 in 10.0 mi SSE 9.2 mph - N/A   Clear
11:13 PM 50.0 °F - 37.4 °F 62% 30.11 in 10.0 mi SE 8.1 mph - N/A   Clear
11:33 PM 48.2 °F - 37.4 °F 66% 30.10 in 10.0 mi SE 9.2 mph - N/A   Clear
11:53 PM 50.0 °F - 39.2 °F 66% 30.10 in 10.0 mi SSE 9.2 mph - N/A   Clear